Simultaneous Nadir Overpasses (SNOs) Predictions

Prediction of SNOs over PacNW region [( 10.00, 139.50) to ( 22.70, 165.60)] between AQUA and NPP Satellites:

Table of predicted SNOs over PacNW region for the next 30.0 days since TLE Epoch: 6/24/2023
Index Date (AQUA) Time (AQUA) AQUA Lat,Lon Date (NPP) Time (NPP) NPP Lat,Lon Distance(km) Time Diff (sec)
1 07/01/2023 15:19:56 20.39, 160.68 07/01/2023 15:19:18 21.38, 155.28 572.17 38
2 07/04/2023 03:38:36 22.66, 149.49 07/04/2023 03:35:07 22.88, 144.21 541.22 209
3 07/17/2023 02:54:13 22.69, 160.72 07/17/2023 02:50:43 22.75, 155.30 555.80 210
